FW0683 Weather Reports


time (UTC)temp
C
wind
direction
speed
KPH
gust
KPH
rain 1hr
cm
rain 24hr
cm
rain mn
cm
humidity
%
barometer
mb
20260901070050 13 94 0.0 0.0 0.00 0.00 0.00 93 1021.6
20260901064545 13 94 0.0 0.0 0.00 0.00 0.00 93 1021.5
20260901063042 13 94 0.0 0.0 0.00 0.00 0.00 93 1021.7
20260901061541 13 94 0.0 0.0 0.00 0.00 0.00 93 1021.6
20260901060043 12 94 0.0 0.0 0.00 0.00 0.00 92 1021.7
20260901054541 13 94 0.0 0.0 0.00 0.00 0.00 92 1021.7
20260901053040 13 94 0.0 0.0 0.00 0.00 0.00 92 1021.7
20260901051544 13 94 0.0 0.0 0.00 0.00 0.00 92 1021.8
20260901050037 13 94 0.0 0.0 0.00 0.00 0.00 92 1021.6
20260901044547 13 94 0.0 0.0 0.00 0.00 0.00 92 1021.8
20260901043033 13 94 0.0 0.0 0.00 0.00 0.00 92 1021.7
20260901041533 13 94 0.0 0.0 0.00 0.00 0.00 91 1021.8
20260901040035 13 94 0.0 0.0 0.00 0.00 0.00 91 1021.8
20260901034529 13 94 0.0 0.0 0.00 0.00 0.00 91 1021.7
20260901033029 13 94 0.0 0.0 0.00 0.00 0.00 90 1021.8
20260901031528 13 94 0.0 0.0 0.00 0.00 0.00 90 1021.9
20260901030028 14 94 0.0 0.0 0.00 0.10 0.00 89 1022.0
20260901024531 14 94 0.0 0.0 0.00 0.10 0.00 89 1021.9
20260901023032 14 94 0.0 0.0 0.00 0.10 0.00 88 1021.9
20260901021529 15 94 0.0 0.0 0.00 0.10 0.00 88 1021.9
20260901020025 15 94 0.0 0.0 0.00 0.10 0.00 87 1021.8
20260901014526 15 94 0.0 0.0 0.00 0.10 0.00 86 1021.9
20260901013026 15 94 0.0 0.0 0.00 0.10 0.00 86 1022.0
20260901011525 15 94 0.0 0.0 0.00 0.10 0.00 85 1022.1
20260901010025 16 94 0.0 0.0 0.00 0.10 0.00 83 1022.1
20260901004532 16 94 0.0 0.0 0.00 0.10 0.00 81 1022.1
20260901003026 17 94 0.0 0.0 0.00 0.10 0.00 79 1021.9
20260901001527 17 94 0.0 0.0 0.00 0.10 0.00 78 1021.8
20260901000023 17 94 0.0 0.0 0.00 0.10 0.00 78 1021.8
20260831234522 18 94 0.0 0.0 0.00 0.10 0.00 76 1021.8
20260831233023 18 54 0.0 0.0 0.00 0.10 0.00 75 1021.9
20260831231524 19 54 0.0 0.0 0.00 0.10 0.00 73 1021.9
20260831230020 20 54 0.0 0.0 0.00 0.10 0.00 71 1022.0
20260831224520 20 72 0.0 0.0 0.00 0.10 0.00 71 1022.0
20260831223021 20 96 0.0 0.0 0.00 0.10 0.00 71 1022.0
20260831221530 20 63 0.0 0.0 0.00 0.10 0.00 70 1021.9
20260831220018 20 81 0.0 0.0 0.00 0.10 0.00 69 1021.9
20260831214533 21 72 0.0 0.0 0.00 0.10 0.00 66 1021.8
20260831213017 21 250 0.0 0.0 0.00 0.10 0.00 63 1021.9
20260831211521 21 214 0.0 0.0 0.00 0.10 0.00 64 1022.1
20260831210016 22 86 0.0 0.0 0.00 0.10 0.00 63 1022.0
20260831204516 22 88 0.0 0.0 0.00 0.10 0.00 62 1022.2
20260831203015 22 141 0.0 0.0 0.00 0.10 0.00 62 1022.2
20260831201523 22 27 0.0 0.0 0.00 0.10 0.00 60 1022.2
20260831200025 22 59 0.0 0.0 0.00 0.10 0.00 59 1022.2
20260831194513 22 118 0.0 1.6 0.00 0.10 0.00 58 1022.2
20260831193012 22 79 0.0 1.6 0.00 0.10 0.00 54 1022.4
20260831191511 23 80 0.0 1.6 0.00 0.10 0.00 56 1022.7
20260831190013 23 87 0.0 0.0 0.00 0.10 0.00 55 1022.7
20260831184517 24 229 0.0 0.0 0.00 0.10 0.00 54 1022.8
20260831183010 23 74 0.0 0.0 0.00 0.10 0.00 53 1022.9
20260831181509 23 255 0.0 3.2 0.00 0.10 0.00 54 1023.0
20260831180008 23 82 0.0 0.0 0.00 0.10 0.00 54 1023.0
20260831174509 23 93 0.0 0.0 0.00 0.10 0.00 53 1023.3
20260831173007 23 169 0.0 1.6 0.00 0.10 0.00 53 1023.3
20260831171506 23 96 0.0 1.6 0.00 0.10 0.00 52 1023.4
20260831170007 24 102 0.0 4.8 0.00 0.10 0.00 51 1023.5
20260831164505 24 247 0.0 0.0 0.00 0.10 0.00 50 1023.6
20260831163010 23 78 0.0 0.0 0.00 0.10 0.00 51 1023.8
20260831161504 23 110 0.0 0.0 0.00 0.10 0.00 54 1024.0
20260831160104 23 120 0.0 0.0 0.00 0.10 0.00 55 1024.3
20260831154616 23 104 0.0 1.6 0.00 0.10 0.00 54 1024.3
20260831153057 22 246 0.0 0.0 0.00 0.10 0.00 61 1024.4
20260831151555 22 97 0.0 0.0 0.00 0.10 0.00 60 1024.5
20260831150053 22 97 0.0 0.0 0.00 0.10 0.00 56 1024.5
20260831144552 22 244 0.0 0.0 0.00 0.10 0.00 61 1024.4
20260831143059 21 94 0.0 0.0 0.00 0.10 0.00 60 1024.5
20260831141548 21 259 0.0 0.0 0.00 0.10 0.00 61 1024.6
20260831140045 21 345 0.0 0.0 0.00 0.10 0.00 61 1024.6
20260831134544 21 77 0.0 0.0 0.00 0.10 0.00 61 1024.6
20260831133041 20 98 0.0 0.0 0.00 0.10 0.00 72 1024.5
20260831131543 20 112 0.0 0.0 0.00 0.10 0.00 73 1024.3
20260831130038 18 341 0.0 0.0 0.00 0.10 0.00 86 1024.3
20260831124538 17 308 0.0 0.0 0.00 0.10 0.00 91 1024.5
20260831123028 16 307 0.0 0.0 0.00 0.10 0.00 92 1024.4
20260831121527 15 307 0.0 0.0 0.00 0.10 0.00 93 1024.2
20260831120047 15 307 0.0 0.0 0.00 0.10 0.00 94 1024.0
20260831114526 13 307 0.0 0.0 0.00 0.10 0.00 95 1024.0
20260831113026 12 307 0.0 0.0 0.00 0.10 0.00 95 1024.2
20260831111524 12 307 0.0 0.0 0.00 0.10 0.00 95 1024.1
20260831110026 12 307 0.0 0.0 0.00 0.10 0.00 94 1024.1
20260831104522 12 307 0.0 0.0 0.00 0.10 0.00 94 1023.9
20260831103024 12 307 0.0 0.0 0.00 0.10 0.00 95 1023.9
20260831101519 12 307 0.0 0.0 0.00 0.10 0.00 94 1023.6
20260831100017 12 307 0.0 0.0 0.00 0.10 0.00 94 1023.4
20260831094515 12 307 0.0 0.0 0.00 0.10 0.00 94 1023.1
20260831093015 12 307 0.0 0.0 0.00 0.10 0.00 94 1023.1
20260831091511 12 307 0.0 0.0 0.00 0.10 0.00 94 1022.9
20260831090009 13 307 0.0 0.0 0.00 0.10 0.00 94 1022.7
20260831084510 13 307 0.0 0.0 0.00 0.10 0.00 94 1022.6
20260831083005 13 307 0.0 0.0 0.00 0.10 0.00 94 1022.6
20260831081502 13 307 0.0 0.0 0.00 0.10 0.00 94 1022.5
20260831080002 13 307 0.0 0.0 0.00 0.10 0.00 94 1022.4
20260831074558 14 307 0.0 0.0 0.00 0.10 0.00 94 1022.2
20260831073058 14 307 0.0 0.0 0.00 0.10 0.00 93 1022.0
20260831071557 14 307 0.0 0.0 0.00 0.10 0.00 93 1021.9